"Pseudo-MPEC" for 1967-040F

Created 2016 Jul 31 15:18:37 UT using Find_Orb

Astrometry:
1967-040F     C2009 06 16.33977 17 46 21.86 +10 25 04.9         x15.1 V D0245703
1967-040F     C2009 06 16.34273 17 46 28.95 +10 25 13.8         x15.1 V D0245703
1967-040F     C2009 06 16.34564 17 46 36.01 +10 25 21.7         x15.1 V D0245703
1967-040F     C2009 06 16.36450 17 47 22.45 +10 25 57.7         x15.1 V D0245703
1967-040F     C2009 06 16.36802 17 47 31.30 +10 26 01.7         x15.0 V D0245703
1967-040F     C2009 06 16.37157 17 47 40.38 +10 26 04.8         x15.0 V D0245703
1967-040F     C2009 06 16.43172 17 49 54.00 +10 21 36.2         x16.0 C D0245H10
1967-040F     C2009 06 16.43223 17 49 55.77 +10 21 34.3         x15.3 C D0245H10
1967-040F     C2009 06 16.43273 17 49 57.53 +10 21 32.5         x15.4 C D0245H10
1967-040F     C2015 09 01.03811 21 02 34.46 -33 07 36.1          16.4 R      Y00
1967-040F     C2015 09 01.03909 21 02 38.00 -33 07 51.5          16.0 R      Y00
1967-040F     C2015 09 01.04021 21 02 42.25 -33 08 10.5          15.9 R      Y00
1967-040F     C2015 09 05.07059 21 15 07.75 -33 29 13.8          15.4 R      Y00
1967-040F     C2015 09 05.07115 21 15 10.00 -33 29 16.6          16.0 R      Y00
1967-040F     C2015 09 05.07178 21 15 12.48 -33 29 20.3          15.9 R      Y00
1967-040F     C2016 06 27.07442 20 52 29.36 -33 48 20.3          15.2 R D0549Y00
1967-040F     C2016 06 27.07534 20 52 35.44 -33 48 41.2          15.3 R D0549Y00
1967-040F     C2016 06 27.07636 20 52 42.06 -33 49 03.9          15.4 R D0549Y00
1967-040F     C2016 07 05.31356 21 30 20.29 -32 44 57.9         x15.6 R D0549Y00
1967-040F     C2016 07 05.31504 21 30 26.27 -32 44 04.5         x15.5 R D0549Y00
1967-040F     C2016 07 05.31666 21 30 32.33 -32 43 05.6         x15.7 R D0549Y00
1967-040F     C2016 07 15.32728 21 56 47.56 -31 06 49.7          15.2 R      Y00
1967-040F     C2016 07 15.32825 21 56 51.98 -31 06 00.7          15.3 R      Y00
1967-040F     C2016 07 15.32926 21 56 56.56 -31 05 10.2          15.2 R      Y00
1967-040F     C2016 07 31.21368 22 32 36.00 -29 11 46.1          15.9 R      Y00
1967-040F     C2016 07 31.21516 22 32 42.99 -29 10 30.9          15.3 R      Y00
1967-040F     C2016 07 31.21682 22 32 50.47 -29 09 08.7          15.2 R      Y00

Station data:
(703) Catalina Sky Survey (N32.41712 W110.73264)  US/Arizona.   Observers E.
    J. Christensen, A. R. Gibbs, A. D. Grauer, R. E. Hill, J. A. Johnson, R. A.
    Kowalski, S. M. Larson, F. C. Shelly.  0.68 m Schmidt + CCD.
(H10) Tzec Maun Observatory, Mayhill (N32.90341 W105.52859)  US/New Mexico.
(Y00) SONEAR Observatory, Oliveira (S20.71513 W44.78496)  Brazil.   Observers
    C. Jacques, E. Pimentel, J. Barros.  Measurer C. Jacques.  0.28-m f/2.2
    astrograph + CCD.

Orbital elements:  1967-040F
   Perigee 2016 Jul 19.984078 +/- 3.55e-5 TT = 23:37:04 (JD 2457589.484078)
Epoch 2016 Jul 20.0 TT; AMR 0.012676 +/- 0.00314 m2/kg       Find_Orb
M   2.9158540 +/- 0.006             (J2000 equatorial)
n 183.1333684299 +/- 0.000432       Peri.  106.4632216 +/- 0.0018
a 66286.514559 +/- 0.104            Node    33.1869288 +/- 0.0012
e   0.846137120 +/- 6.93e-6         Incl.   34.0247942 +/- 0.00020
P2830.67m/1.966d           H 30.3   G  0.15   U  7.5
q 10199.034030 +/- 0.452    Q 122373.99508 +/- 0.574
15 of 27 observations 2015 Sept. 1-2016 July 31; mean residual 0".969
Residuals in arcseconds: 
090616 703(1606+ 68.3+)   150901 Y00 .113+ .079+    160705 Y00(15.6- 6.57-)
090616 703(1604+ 67.9+)   150901 Y00 1.97- 1.26+    160705 Y00(13.3- 7.64-)
090616 703(1602+ 67.4+)   150901 Y00 1.75- .937+    160705 Y00(17.3- 8.86-)
090616 703(1589+ 64.5+)   150905 Y00 .428+ 1.06-    160715 Y00 .366+ .270+
090616 703(1586+ 64.2+)   150905 Y00 1.20+ .629-    160715 Y00 .848+ .416+
090616 703(1584+ 63.9+)   150905 Y00 1.40+ .785-    160715 Y00 .798+ .164-
090616 H10(1540+ 56.4+)   160627 Y00 .426- .690+    160731 Y00 2.16- 1.64-
090616 H10(1540+ 56.4+)   160627 Y00 .144- .303+    160731 Y00 1.02+ .819+
090616 H10(1539+ 56.4+)   160627 Y00 .948- .169+    160731 Y00 .412- .593+

Ephemerides (geocentric):
Date (UTC) HH   RA              Dec         delta   r     elong  mag " sig PA
---- -- -- --  ------------   ------------  ------ ------ -----  --- ---- ---
2016 07 31 00  22 01 39.755   -30 51 10.97  118253 1.0158 157.9 15.9  6.7  75
2016 07 31 01  22 07 27.575   -30 29 58.06  116543 1.0158 157.0 15.9  7.5  74
2016 07 31 02  22 13 24.005   -30 07 03.50  114515 1.0158 156.1 15.9  8.3  73
2016 07 31 03  22 19 31.363   -29 42 11.98  112157 1.0158 155.0 15.9    9  72
2016 07 31 04  22 25 52.350   -29 15 04.37  109458 1.0158 153.9 15.9   10  71
2016 07 31 05  22 32 30.197   -28 45 16.37  106401 1.0157 152.7 15.8   11  70
2016 07 31 06  22 39 28.851   -28 12 16.77  102968 1.0157 151.4 15.8   12  69
2016 07 31 07  22 46 53.253   -27 35 24.66   99137 1.0157 150.0 15.8   13  69
2016 07 31 08  22 54 49.757   -26 53 45.38   94880 1.0156 148.4 15.7   15  67
2016 07 31 09  23 03 26.762   -26 06 03.87   90161 1.0156 146.7 15.7   16  66
2016 07 31 10  23 12 55.747   -25 10 33.92   84939 1.0155 144.6 15.6   18  65
2016 07 31 11  23 23 33.032   -24 04 39.29   79158 1.0155 142.3 15.5   20  64
2016 07 31 12  23 35 42.944   -22 44 18.86   72746 1.0154 139.6 15.4   23  63
2016 07 31 13  23 50 04.048   -21 02 56.80   65608 1.0154 136.2 15.3   26  61
2016 07 31 14  00 07 42.700   -18 48 47.28   57608 1.0153 131.8 15.1   31  60
2016 07 31 15  00 30 47.186   -15 38 17.14   48551 1.0152 125.9 14.9   38  58
2016 07 31 16  01 04 14.994   -10 35 18.50   38136 1.0151 116.9 14.6   51  56
2016 07 31 17  02 04 06.413   -00 41 23.19   25918 1.0151  99.8 14.4   82  55
2016 07 31 18  05 27 31.562   +27 25 25.94   12415 1.0150  46.1 16??  203  68
2016 07 31 19  14 31 34.013   -03 59 32.24   16239 1.0150  88.1 13.8   22 127
2016 07 31 20  16 41 10.556   -22 49 28.51   29782 1.0151 123.1 13.9   16 112
2016 07 31 21  17 39 47.011   -28 27 21.32   41411 1.0152 136.5 14.3   18 107
2016 07 31 22  18 16 27.130   -30 58 20.45   51382 1.0153 144.0 14.5   16 102
2016 07 31 23  18 42 46.870   -32 19 08.25   60099 1.0153 149.0 14.7   15  98
2016 08 01 00  19 03 12.858   -33 06 26.64   67826 1.0154 152.6 14.9   13  95
2016 08 01 01  19 19 53.467   -33 35 18.20   74737 1.0154 155.3 15.0   11  93
2016 08 01 02  19 33 59.621   -33 52 58.23   80953 1.0155 157.4 15.1   10  91
2016 08 01 03  19 46 14.339   -34 03 21.03   86562 1.0155 159.1 15.2    9  89
2016 08 01 04  19 57 05.547   -34 08 43.08   91630 1.0155 160.5 15.3  8.2  87
2016 08 01 05  20 06 52.342   -34 10 28.73   96208 1.0156 161.6 15.4  7.2  85
2016 08 01 06  20 15 48.341   -34 09 32.47  100337 1.0156 162.4 15.4  6.2  84
2016 08 01 07  20 24 03.588   -34 06 30.76  104049 1.0156 163.1 15.5  5.3  82
2016 08 01 08  20 31 45.711   -34 01 48.61  107369 1.0156 163.6 15.5  4.5  80
2016 08 01 09  20 39 00.652   -33 55 43.49  110319 1.0157 163.9 15.6  3.7  78
2016 08 01 10  20 45 53.143   -33 48 27.69  112918 1.0157 164.1 15.6  2.9  76
2016 08 01 11  20 52 27.036   -33 40 09.86  115179 1.0157 164.2 15.7  2.1  72
2016 08 01 12  20 58 45.526   -33 30 55.97  117113 1.0157 164.2 15.7  1.4  66
2016 08 01 13  21 04 51.317   -33 20 49.98  118732 1.0157 164.1 15.7  0.7  51
2016 08 01 14  21 10 46.739   -33 09 54.26  120042 1.0157 163.9 15.8  0.4 159
2016 08 01 15  21 16 33.843   -32 58 09.89  121051 1.0157 163.6 15.8  0.8 103
2016 08 01 16  21 22 14.470   -32 45 36.81  121761 1.0157 163.2 15.8  1.5  91
2016 08 01 17  21 27 50.308   -32 32 13.98  122177 1.0157 162.8 15.8  2.2  86
2016 08 01 18  21 33 22.940   -32 17 59.40  122300 1.0157 162.3 15.9  2.9  83
2016 08 01 19  21 38 53.885   -32 02 50.10  122131 1.0157 161.8 15.9  3.6  81
2016 08 01 20  21 44 24.636   -31 46 42.09  121669 1.0157 161.2 15.9  4.3  79
2016 08 01 21  21 49 56.700   -31 29 30.28  120912 1.0156 160.6 15.9  5.1  78
2016 08 01 22  21 55 31.632   -31 11 08.28  119857 1.0156 159.8 15.9  5.8  77
2016 08 01 23  22 01 11.082   -30 51 28.23  118498 1.0156 159.1 15.9  6.6  76
2016 08 02 00  22 06 56.838   -30 30 20.39  116830 1.0156 158.3 15.9  7.4  75
2016 08 02 01  22 12 50.889   -30 07 32.80  114844 1.0156 157.4 15.9  8.3  74